| time (UTC) | temp C | wind direction | speed KPH | gust KPH | rain 1hr cm | rain 24hr cm | rain mn cm | humidity % | barometer mb |
| 20260509185657 | 26 | 92 | 4.8 | 8.0 | 0.00 | 0.00 | 0.00 | 93 | 1011.0 |
| 20260509185157 | 26 | 117 | 4.8 | 4.8 | 0.00 | 0.00 | 0.00 | 93 | 1011.0 |
| 20260509184657 | 26 | 148 | 1.6 | 1.6 | 0.00 | 0.00 | 0.00 | 93 | 1011.0 |
| 20260509184157 | 26 | 145 | 0.0 | 0.0 | 0.00 | 0.00 | 0.00 | 93 | 1011.0 |
| 20260509183658 | 26 | 123 | 4.8 | 4.8 | 0.00 | 0.00 | 0.00 | 93 | 1011.0 |
| 20260509183157 | 26 | 137 | 3.2 | 3.2 | 0.00 | 0.00 | 0.00 | 94 | 1011.0 |
| 20260509182657 | 26 | 147 | 0.0 | 0.0 | 0.00 | 0.00 | 0.00 | 93 | 1011.0 |
| 20260509182157 | 26 | 109 | 3.2 | 3.2 | 0.00 | 0.00 | 0.00 | 93 | 1011.0 |
| 20260509181657 | 26 | 161 | 0.0 | 0.0 | 0.00 | 0.00 | 0.00 | 93 | 1012.0 |
| 20260509181158 | 26 | 127 | 4.8 | 4.8 | 0.00 | 0.00 | 0.00 | 93 | 1011.0 |
| 20260509180657 | 26 | 103 | 6.4 | 8.0 | 0.00 | 0.00 | 0.00 | 93 | 1012.0 |
| 20260509180157 | 26 | 163 | 1.6 | 3.2 | 0.00 | 0.00 | 0.00 | 93 | 1012.0 |
| 20260509175657 | 26 | 146 | 3.2 | 3.2 | 0.00 | 0.00 | 0.00 | 93 | 1012.0 |
| 20260509175158 | 26 | 96 | 6.4 | 8.0 | 0.00 | 0.00 | 0.00 | 93 | 1012.0 |
| 20260509174658 | 26 | 90 | 6.4 | 8.0 | 0.00 | 0.00 | 0.00 | 93 | 1012.0 |
| 20260509174157 | 26 | 137 | 4.8 | 4.8 | 0.00 | 0.00 | 0.00 | 93 | 1012.0 |
| 20260509173657 | 26 | 96 | 6.4 | 9.7 | 0.00 | 0.00 | 0.00 | 93 | 1012.0 |
| 20260509173157 | 26 | 119 | 3.2 | 3.2 | 0.00 | 0.00 | 0.00 | 93 | 1012.0 |
| 20260509172657 | 26 | 132 | 3.2 | 3.2 | 0.00 | 0.00 | 0.00 | 93 | 1012.0 |
| 20260509172158 | 26 | 143 | 4.8 | 4.8 | 0.00 | 0.00 | 0.00 | 92 | 1012.0 |
| 20260509171657 | 26 | 149 | 1.6 | 4.8 | 0.00 | 0.00 | 0.00 | 92 | 1012.0 |
| 20260509171157 | 26 | 111 | 1.6 | 4.8 | 0.00 | 0.00 | 0.00 | 91 | 1012.0 |
| 20260509170658 | 26 | 132 | 0.0 | 0.0 | 0.00 | 0.00 | 0.00 | 91 | 1012.0 |
| 20260509170157 | 27 | 129 | 4.8 | 4.8 | 0.00 | 0.00 | 0.00 | 91 | 1012.0 |
| 20260509165658 | 27 | 146 | 1.6 | 1.6 | 0.00 | 0.00 | 0.00 | 90 | 1013.0 |
| 20260509165158 | 27 | 123 | 3.2 | 4.8 | 0.00 | 0.00 | 0.00 | 90 | 1012.0 |
| 20260509164658 | 27 | 132 | 1.6 | 3.2 | 0.00 | 0.00 | 0.00 | 90 | 1012.0 |
| 20260509164157 | 27 | 128 | 4.8 | 4.8 | 0.00 | 0.00 | 0.00 | 90 | 1012.0 |
| 20260509163657 | 27 | 130 | 0.0 | 0.0 | 0.00 | 0.00 | 0.00 | 90 | 1013.0 |
| 20260509163157 | 27 | 158 | 0.0 | 0.0 | 0.00 | 0.00 | 0.00 | 90 | 1012.0 |
| 20260509162657 | 27 | 158 | 1.6 | 1.6 | 0.00 | 0.00 | 0.00 | 90 | 1012.0 |
| 20260509162157 | 27 | 136 | 0.0 | 1.6 | 0.00 | 0.00 | 0.00 | 90 | 1012.0 |
| 20260509161701 | 27 | 159 | 0.0 | 0.0 | 0.00 | 0.00 | 0.00 | 90 | 1012.0 |
| 20260509161157 | 27 | 142 | 1.6 | 3.2 | 0.00 | 0.00 | 0.00 | 89 | 1013.0 |
| 20260509160657 | 27 | 159 | 1.6 | 1.6 | 0.00 | 0.00 | 0.00 | 90 | 1013.0 |
| 20260509160157 | 27 | 160 | 0.0 | 0.0 | 0.00 | 0.00 | 0.00 | 90 | 1013.0 |
| 20260509155658 | 27 | 139 | 3.2 | 3.2 | 0.00 | 0.00 | 0.00 | 89 | 1013.0 |
| 20260509155159 | 27 | 119 | 3.2 | 3.2 | 0.00 | 0.00 | 0.00 | 89 | 1013.0 |
| 20260509154657 | 27 | 107 | 4.8 | 4.8 | 0.00 | 0.00 | 0.00 | 89 | 1013.0 |
| 20260509154157 | 27 | 140 | 1.6 | 1.6 | 0.00 | 0.00 | 0.00 | 89 | 1013.0 |
| 20260509153657 | 27 | 137 | 0.0 | 0.0 | 0.00 | 0.00 | 0.00 | 89 | 1012.0 |
| 20260509153157 | 27 | 134 | 1.6 | 3.2 | 0.00 | 0.00 | 0.00 | 89 | 1013.0 |
| 20260509152658 | 28 | 163 | 0.0 | 0.0 | 0.00 | 0.00 | 0.00 | 88 | 1013.0 |
| 20260509152157 | 28 | 137 | 3.2 | 4.8 | 0.00 | 0.00 | 0.00 | 86 | 1013.0 |
| 20260509151657 | 28 | 133 | 1.6 | 1.6 | 0.00 | 0.00 | 0.00 | 85 | 1013.0 |
| 20260509151158 | 28 | 358 | 8.0 | 9.7 | 0.00 | 0.00 | 0.00 | 85 | 1013.0 |
| 20260509150658 | 28 | 116 | 4.8 | 8.0 | 0.00 | 0.00 | 0.00 | 85 | 1013.0 |
| 20260509150157 | 28 | 128 | 3.2 | 3.2 | 0.00 | 0.00 | 0.00 | 85 | 1013.0 |
| 20260509145657 | 29 | 28 | 4.8 | 4.8 | 0.00 | 0.00 | 0.00 | 84 | 1013.0 |
| 20260509145157 | 29 | 76 | 1.6 | 3.2 | 0.00 | 0.00 | 0.00 | 84 | 1013.0 |
| 20260509144657 | 29 | 137 | 1.6 | 1.6 | 0.00 | 0.00 | 0.00 | 83 | 1013.0 |
| 20260509144157 | 29 | 334 | 4.8 | 8.0 | 0.00 | 0.00 | 0.00 | 83 | 1012.0 |
| 20260509143657 | 29 | 172 | 1.6 | 1.6 | 0.00 | 0.00 | 0.00 | 83 | 1012.0 |
| 20260509143158 | 29 | 171 | 1.6 | 3.2 | 0.00 | 0.00 | 0.00 | 83 | 1013.0 |
| 20260509142657 | 29 | 177 | 1.6 | 1.6 | 0.00 | 0.00 | 0.00 | 83 | 1012.0 |
| 20260509142157 | 29 | 204 | 3.2 | 3.2 | 0.00 | 0.00 | 0.00 | 83 | 1013.0 |
| 20260509141657 | 29 | 186 | 3.2 | 3.2 | 0.00 | 0.00 | 0.00 | 83 | 1012.0 |
| 20260509141158 | 29 | 193 | 3.2 | 4.8 | 0.00 | 0.00 | 0.00 | 83 | 1012.0 |
| 20260509140657 | 28 | 176 | 1.6 | 1.6 | 0.00 | 0.00 | 0.00 | 84 | 1012.0 |
| 20260509140158 | 28 | 190 | 1.6 | 1.6 | 0.00 | 0.00 | 0.00 | 84 | 1012.0 |
| 20260509135657 | 28 | 166 | 0.0 | 0.0 | 0.00 | 0.00 | 0.00 | 84 | 1012.0 |
| 20260509135157 | 29 | 155 | 0.0 | 0.0 | 0.00 | 0.00 | 0.00 | 84 | 1012.0 |
| 20260509134657 | 29 | 206 | 3.2 | 3.2 | 0.00 | 0.00 | 0.00 | 83 | 1012.0 |
| 20260509134157 | 29 | 153 | 0.0 | 0.0 | 0.00 | 0.00 | 0.00 | 83 | 1012.0 |
| 20260509133657 | 29 | 194 | 0.0 | 0.0 | 0.00 | 0.00 | 0.00 | 83 | 1012.0 |
| 20260509133157 | 29 | 151 | 0.0 | 0.0 | 0.00 | 0.00 | 0.00 | 84 | 1012.0 |
| 20260509132657 | 29 | 161 | 1.6 | 1.6 | 0.00 | 0.00 | 0.00 | 84 | 1012.0 |
| 20260509132157 | 29 | 194 | 1.6 | 1.6 | 0.00 | 0.00 | 0.00 | 83 | 1012.0 |
| 20260509131657 | 29 | 141 | 1.6 | 1.6 | 0.00 | 0.00 | 0.00 | 83 | 1012.0 |
| 20260509131159 | 29 | 148 | 4.8 | 8.0 | 0.00 | 0.00 | 0.00 | 83 | 1012.0 |
| 20260509130657 | 29 | 165 | 0.0 | 0.0 | 0.00 | 0.00 | 0.00 | 83 | 1012.0 |
| 20260509130157 | 29 | 211 | 3.2 | 3.2 | 0.00 | 0.00 | 0.00 | 83 | 1012.0 |
| 20260509125657 | 29 | 225 | 3.2 | 4.8 | 0.00 | 0.00 | 0.00 | 82 | 1012.0 |
| 20260509125157 | 29 | 210 | 1.6 | 3.2 | 0.00 | 0.00 | 0.00 | 82 | 1012.0 |
| 20260509124657 | 29 | 215 | 1.6 | 1.6 | 0.00 | 0.00 | 0.00 | 82 | 1012.0 |
| 20260509124157 | 29 | 168 | 0.0 | 0.0 | 0.00 | 0.00 | 0.00 | 81 | 1012.0 |
| 20260509123657 | 29 | 190 | 1.6 | 1.6 | 0.00 | 0.00 | 0.00 | 81 | 1012.0 |
| 20260509123157 | 29 | 198 | 3.2 | 3.2 | 0.00 | 0.00 | 0.00 | 81 | 1012.0 |
| 20260509122657 | 29 | 175 | 1.6 | 1.6 | 0.00 | 0.00 | 0.00 | 81 | 1012.0 |
| 20260509122157 | 29 | 228 | 1.6 | 3.2 | 0.00 | 0.00 | 0.00 | 80 | 1012.0 |
| 20260509121657 | 29 | 203 | 4.8 | 4.8 | 0.00 | 0.00 | 0.00 | 80 | 1011.0 |
| 20260509121157 | 29 | 170 | 1.6 | 3.2 | 0.00 | 0.00 | 0.00 | 79 | 1011.0 |
| 20260509120657 | 29 | 213 | 3.2 | 3.2 | 0.00 | 0.00 | 0.00 | 79 | 1011.0 |
| 20260509120157 | 29 | 171 | 1.6 | 1.6 | 0.00 | 0.00 | 0.00 | 79 | 1011.0 |
| 20260509115658 | 29 | 192 | 0.0 | 0.0 | 0.00 | 0.00 | 0.00 | 79 | 1011.0 |
| 20260509115157 | 30 | 227 | 4.8 | 4.8 | 0.00 | 0.00 | 0.00 | 78 | 1011.0 |
| 20260509114657 | 30 | 199 | 1.6 | 1.6 | 0.00 | 0.00 | 0.00 | 78 | 1011.0 |
| 20260509114157 | 30 | 172 | 1.6 | 1.6 | 0.00 | 0.00 | 0.00 | 78 | 1011.0 |
| 20260509113657 | 30 | 277 | 4.8 | 8.0 | 0.00 | 0.00 | 0.00 | 78 | 1011.0 |
| 20260509113158 | 30 | 171 | 1.6 | 3.2 | 0.00 | 0.00 | 0.00 | 78 | 1011.0 |
| 20260509112658 | 30 | 274 | 4.8 | 8.0 | 0.00 | 0.00 | 0.00 | 78 | 1011.0 |
| 20260509112157 | 30 | 280 | 4.8 | 4.8 | 0.00 | 0.00 | 0.00 | 78 | 1011.0 |
| 20260509111657 | 30 | 197 | 3.2 | 3.2 | 0.00 | 0.00 | 0.00 | 77 | 1011.0 |
| 20260509111157 | 30 | 192 | 1.6 | 1.6 | 0.00 | 0.00 | 0.00 | 77 | 1010.0 |
| 20260509110658 | 30 | 175 | 1.6 | 3.2 | 0.00 | 0.00 | 0.00 | 77 | 1010.0 |
| 20260509110157 | 30 | 225 | 3.2 | 3.2 | 0.00 | 0.00 | 0.00 | 77 | 1010.0 |
| 20260509105657 | 30 | 269 | 6.4 | 8.0 | 0.00 | 0.00 | 0.00 | 77 | 1010.0 |
| 20260509105157 | 30 | 174 | 1.6 | 1.6 | 0.00 | 0.00 | 0.00 | 77 | 1010.0 |
| 20260509104657 | 30 | 204 | 1.6 | 1.6 | 0.00 | 0.00 | 0.00 | 77 | 1010.0 |
| 20260509104157 | 30 | 214 | 3.2 | 3.2 | 0.00 | 0.00 | 0.00 | 76 | 1010.0 |
| 20260509103657 | 30 | 278 | 8.0 | 11.3 | 0.00 | 0.00 | 0.00 | 76 | 1010.0 |
| 20260509103157 | 30 | 173 | 6.4 | 8.0 | 0.00 | 0.00 | 0.00 | 75 | 1010.0 |
| 20260509102658 | 30 | 191 | 3.2 | 3.2 | 0.00 | 0.00 | 0.00 | 76 | 1010.0 |
| 20260509102157 | 30 | 262 | 6.4 | 8.0 | 0.00 | 0.00 | 0.00 | 75 | 1010.0 |
| 20260509101657 | 30 | 155 | 3.2 | 3.2 | 0.00 | 0.00 | 0.00 | 75 | 1010.0 |
| 20260509101157 | 30 | 274 | 6.4 | 8.0 | 0.00 | 0.00 | 0.00 | 75 | 1010.0 |
| 20260509100658 | 30 | 169 | 4.8 | 8.0 | 0.00 | 0.00 | 0.00 | 74 | 1010.0 |
| 20260509100157 | 30 | 226 | 4.8 | 8.0 | 0.00 | 0.00 | 0.00 | 74 | 1010.0 |
| 20260509095658 | 30 | 242 | 8.0 | 8.0 | 0.00 | 0.00 | 0.00 | 73 | 1010.0 |
| 20260509095157 | 31 | 177 | 0.0 | 0.0 | 0.00 | 0.00 | 0.00 | 73 | 1009.0 |
| 20260509094657 | 31 | 174 | 4.8 | 4.8 | 0.00 | 0.00 | 0.00 | 72 | 1009.0 |
| 20260509094157 | 31 | 223 | 4.8 | 8.0 | 0.00 | 0.00 | 0.00 | 72 | 1009.0 |
| 20260509093658 | 31 | 259 | 6.4 | 8.0 | 0.00 | 0.00 | 0.00 | 72 | 1009.0 |
| 20260509093157 | 31 | 274 | 9.7 | 12.9 | 0.00 | 0.00 | 0.00 | 72 | 1009.0 |
| 20260509092657 | 31 | 213 | 6.4 | 8.0 | 0.00 | 0.00 | 0.00 | 72 | 1009.0 |
| 20260509092157 | 31 | 238 | 9.7 | 12.9 | 0.00 | 0.00 | 0.00 | 72 | 1009.0 |
| 20260509091657 | 31 | 227 | 6.4 | 11.3 | 0.00 | 0.00 | 0.00 | 72 | 1009.0 |
| 20260509091158 | 31 | 228 | 0.0 | 0.0 | 0.00 | 0.00 | 0.00 | 73 | 1009.0 |
| 20260509090657 | 31 | 212 | 6.4 | 9.7 | 0.00 | 0.00 | 0.00 | 73 | 1009.0 |
| 20260509090157 | 31 | 220 | 9.7 | 12.9 | 0.00 | 0.00 | 0.00 | 73 | 1009.0 |
| 20260509085657 | 31 | 225 | 4.8 | 8.0 | 0.00 | 0.00 | 0.00 | 74 | 1009.0 |
| 20260509085159 | 31 | 227 | 12.9 | 14.5 | 0.00 | 0.00 | 0.00 | 73 | 1009.0 |
| 20260509084657 | 31 | 232 | 11.3 | 14.5 | 0.00 | 0.00 | 0.00 | 71 | 1009.0 |
| 20260509084157 | 31 | 267 | 8.0 | 11.3 | 0.00 | 0.00 | 0.00 | 69 | 1009.0 |
| 20260509083658 | 31 | 306 | 9.7 | 11.3 | 0.00 | 0.00 | 0.00 | 69 | 1009.0 |
| 20260509083158 | 32 | 270 | 6.4 | 9.7 | 0.00 | 0.00 | 0.00 | 67 | 1009.0 |
| 20260509082657 | 32 | 264 | 8.0 | 11.3 | 0.00 | 0.00 | 0.00 | 67 | 1009.0 |
| 20260509082157 | 32 | 227 | 9.7 | 12.9 | 0.00 | 0.00 | 0.00 | 69 | 1009.0 |
| 20260509081657 | 32 | 196 | 16.1 | 17.7 | 0.00 | 0.00 | 0.00 | 68 | 1009.0 |
| 20260509081157 | 32 | 188 | 3.2 | 3.2 | 0.00 | 0.00 | 0.00 | 70 | 1009.0 |
| 20260509080657 | 32 | 192 | 6.4 | 9.7 | 0.00 | 0.00 | 0.00 | 70 | 1009.0 |
| 20260509080157 | 32 | 218 | 4.8 | 4.8 | 0.00 | 0.00 | 0.00 | 71 | 1009.0 |
| 20260509075657 | 32 | 240 | 8.0 | 9.7 | 0.00 | 0.00 | 0.00 | 71 | 1009.0 |
| 20260509075157 | 32 | 211 | 11.3 | 12.9 | 0.00 | 0.00 | 0.00 | 70 | 1009.0 |
| 20260509074657 | 32 | 208 | 8.0 | 11.3 | 0.00 | 0.00 | 0.00 | 71 | 1009.0 |
| 20260509074157 | 32 | 237 | 11.3 | 12.9 | 0.00 | 0.00 | 0.00 | 68 | 1008.0 |
| 20260509073657 | 32 | 183 | 6.4 | 9.7 | 0.00 | 0.00 | 0.00 | 68 | 1008.0 |
| 20260509073157 | 33 | 200 | 6.4 | 9.7 | 0.00 | 0.00 | 0.00 | 66 | 1008.0 |
| 20260509072657 | 33 | 250 | 3.2 | 3.2 | 0.00 | 0.00 | 0.00 | 61 | 1008.0 |
| 20260509072157 | 33 | 176 | 3.2 | 3.2 | 0.00 | 0.00 | 0.00 | 60 | 1008.0 |
| 20260509071657 | 33 | 194 | 0.0 | 0.0 | 0.00 | 0.00 | 0.00 | 61 | 1008.0 |
| 20260509071157 | 33 | 139 | 3.2 | 3.2 | 0.00 | 0.00 | 0.00 | 61 | 1008.0 |
| 20260509070658 | 33 | 164 | 1.6 | 1.6 | 0.00 | 0.00 | 0.00 | 61 | 1009.0 |
| 20260509070158 | 33 | 264 | 6.4 | 8.0 | 0.00 | 0.00 | 0.00 | 60 | 1008.0 |
| 20260509065657 | 34 | 282 | 8.0 | 9.7 | 0.00 | 0.00 | 0.00 | 59 | 1008.0 |
| 20260509065157 | 35 | 153 | 3.2 | 3.2 | 0.00 | 0.00 | 0.00 | 57 | 1008.0 |
| 20260509064657 | 34 | 167 | 0.0 | 0.0 | 0.00 | 0.00 | 0.00 | 59 | 1008.0 |
| 20260509064157 | 33 | 172 | 1.6 | 1.6 | 0.00 | 0.00 | 0.00 | 60 | 1008.0 |
| 20260509063657 | 33 | 210 | 8.0 | 9.7 | 0.00 | 0.00 | 0.00 | 60 | 1009.0 |
| 20260509063157 | 33 | 276 | 4.8 | 8.0 | 0.00 | 0.00 | 0.00 | 62 | 1009.0 |
| 20260509062657 | 33 | 305 | 8.0 | 9.7 | 0.00 | 0.00 | 0.00 | 62 | 1009.0 |
| 20260509062157 | 33 | 180 | 0.0 | 0.0 | 0.00 | 0.00 | 0.00 | 62 | 1009.0 |
| 20260509061657 | 32 | 174 | 3.2 | 4.8 | 0.00 | 0.00 | 0.00 | 62 | 1009.0 |
| 20260509061157 | 33 | 228 | 4.8 | 8.0 | 0.00 | 0.00 | 0.00 | 62 | 1009.0 |
| 20260509060702 | 32 | 190 | 3.2 | 4.8 | 0.00 | 0.00 | 0.00 | 62 | 1009.0 |
| 20260509060157 | 32 | 251 | 4.8 | 4.8 | 0.00 | 0.00 | 0.00 | 62 | 1009.0 |
| 20260509055657 | 33 | 321 | 8.0 | 9.7 | 0.00 | 0.00 | 0.00 | 62 | 1009.0 |
| 20260509055157 | 33 | 286 | 12.9 | 14.5 | 0.00 | 0.00 | 0.00 | 61 | 1009.0 |
| 20260509054658 | 34 | 179 | 4.8 | 4.8 | 0.00 | 0.00 | 0.00 | 59 | 1009.0 |
| 20260509054157 | 33 | 280 | 4.8 | 8.0 | 0.00 | 0.00 | 0.00 | 59 | 1009.0 |
| 20260509053657 | 33 | 249 | 6.4 | 8.0 | 0.00 | 0.00 | 0.00 | 59 | 1009.0 |
| 20260509053157 | 34 | 299 | 9.7 | 14.5 | 0.00 | 0.00 | 0.00 | 60 | 1009.0 |
| 20260509052657 | 33 | 141 | 1.6 | 1.6 | 0.00 | 0.00 | 0.00 | 59 | 1009.0 |
| 20260509052157 | 33 | 285 | 11.3 | 11.3 | 0.00 | 0.00 | 0.00 | 59 | 1009.0 |
| 20260509051657 | 33 | 207 | 6.4 | 8.0 | 0.00 | 0.00 | 0.00 | 60 | 1009.0 |
| 20260509051157 | 33 | 265 | 4.8 | 4.8 | 0.00 | 0.00 | 0.00 | 61 | 1010.0 |
| 20260509050657 | 32 | 358 | 6.4 | 9.7 | 0.00 | 0.00 | 0.00 | 62 | 1010.0 |
| 20260509050157 | 32 | 274 | 9.7 | 14.5 | 0.00 | 0.00 | 0.00 | 63 | 1010.0 |
| 20260509045657 | 32 | 313 | 9.7 | 12.9 | 0.00 | 0.00 | 0.00 | 63 | 1010.0 |
| 20260509045157 | 32 | 7 | 6.4 | 8.0 | 0.00 | 0.00 | 0.00 | 63 | 1010.0 |
| 20260509044658 | 33 | 21 | 6.4 | 9.7 | 0.00 | 0.00 | 0.00 | 63 | 1010.0 |
| 20260509044157 | 33 | 206 | 3.2 | 3.2 | 0.00 | 0.00 | 0.00 | 61 | 1010.0 |
| 20260509043657 | 33 | 306 | 8.0 | 8.0 | 0.00 | 0.00 | 0.00 | 62 | 1010.0 |
| 20260509043157 | 33 | 185 | 4.8 | 4.8 | 0.00 | 0.00 | 0.00 | 63 | 1010.0 |
| 20260509042657 | 32 | 237 | 4.8 | 4.8 | 0.00 | 0.00 | 0.00 | 63 | 1010.0 |
| 20260509042157 | 32 | 333 | 11.3 | 11.3 | 0.00 | 0.00 | 0.00 | 63 | 1010.0 |
| 20260509041657 | 33 | 25 | 8.0 | 9.7 | 0.00 | 0.00 | 0.00 | 64 | 1010.0 |
| 20260509041157 | 33 | 49 | 4.8 | 9.7 | 0.00 | 0.00 | 0.00 | 64 | 1010.0 |
| 20260509040657 | 32 | 331 | 3.2 | 3.2 | 0.00 | 0.00 | 0.00 | 65 | 1010.0 |
| 20260509040157 | 32 | 349 | 11.3 | 11.3 | 0.00 | 0.00 | 0.00 | 66 | 1011.0 |
| 20260509035657 | 32 | 122 | 1.6 | 3.2 | 0.00 | 0.00 | 0.00 | 68 | 1011.0 |
| 20260509035158 | 32 | 71 | 6.4 | 8.0 | 0.00 | 0.00 | 0.00 | 68 | 1011.0 |
| 20260509034657 | 32 | 241 | 6.4 | 8.0 | 0.00 | 0.00 | 0.00 | 66 | 1011.0 |
| 20260509034157 | 32 | 168 | 4.8 | 4.8 | 0.00 | 0.00 | 0.00 | 67 | 1011.0 |
| 20260509033657 | 31 | 35 | 6.4 | 9.7 | 0.00 | 0.00 | 0.00 | 68 | 1011.0 |
| 20260509033157 | 32 | 48 | 4.8 | 4.8 | 0.00 | 0.00 | 0.00 | 69 | 1011.0 |
| 20260509032657 | 32 | 24 | 6.4 | 9.7 | 0.00 | 0.00 | 0.00 | 67 | 1011.0 |
| 20260509032158 | 32 | 268 | 6.4 | 8.0 | 0.00 | 0.00 | 0.00 | 69 | 1011.0 |
| 20260509031657 | 32 | 72 | 4.8 | 8.0 | 0.00 | 0.00 | 0.00 | 69 | 1011.0 |
| 20260509031157 | 31 | 187 | 3.2 | 3.2 | 0.00 | 0.00 | 0.00 | 70 | 1012.0 |
| 20260509030658 | 31 | 350 | 6.4 | 9.7 | 0.00 | 0.00 | 0.00 | 71 | 1012.0 |
| 20260509030158 | 31 | 304 | 4.8 | 8.0 | 0.00 | 0.00 | 0.00 | 71 | 1012.0 |
| 20260509025657 | 31 | 148 | 3.2 | 4.8 | 0.00 | 0.00 | 0.00 | 72 | 1012.0 |
| 20260509025157 | 31 | 78 | 6.4 | 8.0 | 0.00 | 0.00 | 0.00 | 72 | 1012.0 |
| 20260509024659 | 31 | 145 | 1.6 | 3.2 | 0.00 | 0.00 | 0.00 | 71 | 1012.0 |
| 20260509024157 | 31 | 175 | 1.6 | 1.6 | 0.00 | 0.00 | 0.00 | 72 | 1012.0 |
| 20260509023658 | 31 | 269 | 4.8 | 4.8 | 0.00 | 0.00 | 0.00 | 72 | 1012.0 |
| 20260509023157 | 31 | 54 | 4.8 | 4.8 | 0.00 | 0.00 | 0.00 | 73 | 1012.0 |
| 20260509022657 | 31 | 214 | 3.2 | 4.8 | 0.00 | 0.00 | 0.00 | 73 | 1012.0 |
| 20260509022157 | 30 | 146 | 1.6 | 1.6 | 0.00 | 0.00 | 0.00 | 74 | 1012.0 |
| 20260509021657 | 30 | 358 | 4.8 | 4.8 | 0.00 | 0.00 | 0.00 | 74 | 1013.0 |
| 20260509021157 | 30 | 0 | 8.0 | 8.0 | 0.00 | 0.00 | 0.00 | 75 | 1012.0 |
| 20260509020657 | 30 | 347 | 6.4 | 8.0 | 0.00 | 0.00 | 0.00 | 77 | 1013.0 |
| 20260509020157 | 30 | 252 | 4.8 | 4.8 | 0.00 | 0.00 | 0.00 | 77 | 1013.0 |
| 20260509015657 | 30 | 153 | 1.6 | 1.6 | 0.00 | 0.00 | 0.00 | 78 | 1013.0 |
| 20260509015158 | 29 | 165 | 1.6 | 1.6 | 0.00 | 0.00 | 0.00 | 79 | 1013.0 |
| 20260509014657 | 29 | 152 | 1.6 | 1.6 | 0.00 | 0.00 | 0.00 | 80 | 1013.0 |
| 20260509014157 | 29 | 134 | 1.6 | 1.6 | 0.00 | 0.00 | 0.00 | 81 | 1013.0 |
| 20260509013657 | 28 | 36 | 4.8 | 4.8 | 0.00 | 0.00 | 0.00 | 82 | 1013.0 |
| 20260509013157 | 28 | 91 | 1.6 | 3.2 | 0.00 | 0.00 | 0.00 | 82 | 1013.0 |
| 20260509012657 | 28 | 148 | 1.6 | 1.6 | 0.00 | 0.00 | 0.00 | 82 | 1013.0 |
| 20260509012157 | 28 | 103 | 1.6 | 1.6 | 0.00 | 0.00 | 0.00 | 83 | 1013.0 |
| 20260509011658 | 28 | 137 | 3.2 | 3.2 | 0.00 | 0.00 | 0.00 | 83 | 1013.0 |
| 20260509011157 | 28 | 138 | 3.2 | 3.2 | 0.00 | 0.00 | 0.00 | 83 | 1013.0 |
| 20260509010657 | 27 | 131 | 6.4 | 8.0 | 0.00 | 0.00 | 0.00 | 84 | 1013.0 |
| 20260509010157 | 28 | 136 | 3.2 | 3.2 | 0.00 | 0.00 | 0.00 | 84 | 1013.0 |
| 20260509005657 | 27 | 146 | 1.6 | 3.2 | 0.00 | 0.00 | 0.00 | 85 | 1013.0 |
| 20260509005157 | 27 | 137 | 4.8 | 4.8 | 0.00 | 0.00 | 0.00 | 85 | 1013.0 |
| 20260509004657 | 27 | 160 | 3.2 | 3.2 | 0.00 | 0.00 | 0.00 | 85 | 1013.0 |
| 20260509004159 | 27 | 166 | 0.0 | 0.0 | 0.00 | 0.00 | 0.00 | 86 | 1013.0 |
| 20260509003700 | 27 | 144 | 3.2 | 3.2 | 0.00 | 0.00 | 0.00 | 85 | 1013.0 |
| 20260509003157 | 27 | 175 | 0.0 | 0.0 | 0.00 | 0.00 | 0.00 | 87 | 1013.0 |
| 20260509002659 | 26 | 142 | 1.6 | 3.2 | 0.00 | 0.00 | 0.00 | 88 | 1013.0 |
| 20260509002157 | 26 | 142 | 3.2 | 3.2 | 0.00 | 0.00 | 0.00 | 88 | 1013.0 |
| 20260509001657 | 26 | 154 | 3.2 | 3.2 | 0.00 | 0.00 | 0.00 | 88 | 1012.0 |
| 20260509001157 | 26 | 157 | 1.6 | 1.6 | 0.00 | 0.00 | 0.00 | 88 | 1012.0 |
| 20260509000659 | 26 | 130 | 1.6 | 1.6 | 0.00 | 0.00 | 0.00 | 88 | 1012.0 |
| 20260509000157 | 26 | 149 | 1.6 | 1.6 | 0.00 | 0.00 | 0.00 | 88 | 1012.0 |
| 20260508235657 | 26 | 116 | 4.8 | 4.8 | 0.00 | 0.00 | 0.00 | 88 | 1012.0 |
| 20260508235157 | 26 | 125 | 1.6 | 1.6 | 0.00 | 0.00 | 0.00 | 89 | 1012.0 |
| 20260508234657 | 26 | 143 | 3.2 | 3.2 | 0.00 | 0.00 | 0.00 | 88 | 1012.0 |
| 20260508234157 | 26 | 134 | 1.6 | 3.2 | 0.00 | 0.00 | 0.00 | 88 | 1012.0 |
| 20260508233657 | 26 | 131 | 4.8 | 4.8 | 0.00 | 0.00 | 0.00 | 89 | 1012.0 |
| 20260508233201 | 26 | 153 | 0.0 | 0.0 | 0.00 | 0.00 | 0.00 | 90 | 1012.0 |
| 20260508232657 | 26 | 132 | 3.2 | 3.2 | 0.00 | 0.00 | 0.00 | 89 | 1012.0 |
| 20260508232157 | 26 | 145 | 1.6 | 3.2 | 0.00 | 0.00 | 0.00 | 90 | 1012.0 |
| 20260508231657 | 26 | 155 | 0.0 | 0.0 | 0.00 | 0.00 | 0.00 | 90 | 1012.0 |
| 20260508231157 | 26 | 165 | 0.0 | 0.0 | 0.00 | 0.00 | 0.00 | 90 | 1012.0 |
| 20260508230657 | 26 | 162 | 0.0 | 0.0 | 0.00 | 0.00 | 0.00 | 91 | 1012.0 |
| 20260508230157 | 26 | 136 | 0.0 | 0.0 | 0.00 | 0.00 | 0.00 | 91 | 1012.0 |
| 20260508225657 | 26 | 152 | 0.0 | 0.0 | 0.00 | 0.00 | 0.00 | 91 | 1012.0 |
| 20260508225157 | 26 | 157 | 0.0 | 0.0 | 0.00 | 0.00 | 0.00 | 92 | 1012.0 |
| 20260508224657 | 25 | 162 | 0.0 | 0.0 | 0.00 | 0.00 | 0.00 | 92 | 1012.0 |
| 20260508224157 | 25 | 161 | 0.0 | 0.0 | 0.00 | 0.00 | 0.00 | 92 | 1012.0 |
| 20260508223657 | 25 | 148 | 3.2 | 3.2 | 0.00 | 0.00 | 0.00 | 92 | 1012.0 |
| 20260508223157 | 25 | 133 | 4.8 | 4.8 | 0.00 | 0.00 | 0.00 | 92 | 1012.0 |
| 20260508222658 | 25 | 143 | 3.2 | 3.2 | 0.00 | 0.00 | 0.00 | 92 | 1011.0 |
| 20260508222157 | 25 | 132 | 3.2 | 3.2 | 0.00 | 0.00 | 0.00 | 92 | 1011.0 |
| 20260508221659 | 25 | 155 | 1.6 | 1.6 | 0.00 | 0.00 | 0.00 | 92 | 1012.0 |
| 20260508221157 | 25 | 158 | 0.0 | 0.0 | 0.00 | 0.00 | 0.00 | 92 | 1011.0 |
| 20260508220657 | 25 | 150 | 0.0 | 0.0 | 0.00 | 0.00 | 0.00 | 92 | 1011.0 |
| 20260508220157 | 25 | 150 | 1.6 | 3.2 | 0.00 | 0.00 | 0.00 | 92 | 1011.0 |
| 20260508215657 | 25 | 156 | 0.0 | 0.0 | 0.00 | 0.00 | 0.00 | 92 | 1011.0 |
| 20260508215157 | 25 | 158 | 0.0 | 0.0 | 0.00 | 0.00 | 0.00 | 92 | 1011.0 |
| 20260508214658 | 25 | 135 | 0.0 | 0.0 | 0.00 | 0.00 | 0.00 | 92 | 1011.0 |
| 20260508214157 | 25 | 156 | 1.6 | 1.6 | 0.00 | 0.00 | 0.00 | 92 | 1011.0 |
| 20260508213658 | 26 | 149 | 3.2 | 3.2 | 0.00 | 0.00 | 0.00 | 92 | 1011.0 |
| 20260508213158 | 26 | 146 | 1.6 | 1.6 | 0.00 | 0.00 | 0.00 | 92 | 1011.0 |
| 20260508212657 | 26 | 155 | 1.6 | 1.6 | 0.00 | 0.00 | 0.00 | 92 | 1011.0 |
| 20260508212157 | 26 | 150 | 3.2 | 3.2 | 0.00 | 0.00 | 0.00 | 92 | 1011.0 |
| 20260508211659 | 26 | 128 | 4.8 | 4.8 | 0.00 | 0.00 | 0.00 | 92 | 1011.0 |
| 20260508211158 | 26 | 144 | 4.8 | 8.0 | 0.00 | 0.00 | 0.00 | 92 | 1011.0 |
| 20260508210657 | 26 | 125 | 3.2 | 3.2 | 0.00 | 0.00 | 0.00 | 93 | 1011.0 |
| 20260508210157 | 26 | 144 | 1.6 | 1.6 | 0.00 | 0.00 | 0.00 | 93 | 1011.0 |
| 20260508205657 | 26 | 136 | 3.2 | 3.2 | 0.00 | 0.00 | 0.00 | 93 | 1011.0 |
| 20260508205157 | 26 | 139 | 1.6 | 3.2 | 0.00 | 0.00 | 0.00 | 93 | 1011.0 |
| 20260508204657 | 26 | 137 | 3.2 | 4.8 | 0.00 | 0.00 | 0.00 | 93 | 1011.0 |
| 20260508204157 | 26 | 147 | 4.8 | 8.0 | 0.00 | 0.00 | 0.00 | 93 | 1011.0 |
| 20260508203657 | 26 | 122 | 1.6 | 1.6 | 0.00 | 0.00 | 0.00 | 93 | 1011.0 |
| 20260508203157 | 26 | 150 | 1.6 | 1.6 | 0.00 | 0.00 | 0.00 | 93 | 1011.0 |
| 20260508202657 | 26 | 100 | 3.2 | 4.8 | 0.00 | 0.00 | 0.00 | 93 | 1011.0 |
| 20260508202158 | 26 | 136 | 4.8 | 4.8 | 0.00 | 0.00 | 0.00 | 92 | 1011.0 |
| 20260508201657 | 26 | 150 | 1.6 | 1.6 | 0.00 | 0.00 | 0.00 | 93 | 1011.0 |
| 20260508201157 | 26 | 127 | 3.2 | 3.2 | 0.00 | 0.00 | 0.00 | 93 | 1011.0 |
| 20260508200657 | 26 | 139 | 3.2 | 3.2 | 0.00 | 0.00 | 0.00 | 92 | 1011.0 |
| 20260508200157 | 26 | 139 | 4.8 | 4.8 | 0.00 | 0.00 | 0.00 | 92 | 1011.0 |
| 20260508195657 | 26 | 147 | 4.8 | 4.8 | 0.00 | 0.00 | 0.00 | 92 | 1011.0 |
| 20260508195157 | 26 | 148 | 4.8 | 4.8 | 0.00 | 0.00 | 0.00 | 91 | 1011.0 |
| 20260508194657 | 26 | 137 | 4.8 | 4.8 | 0.00 | 0.00 | 0.00 | 91 | 1010.0 |
| 20260508194157 | 26 | 142 | 1.6 | 1.6 | 0.00 | 0.00 | 0.00 | 91 | 1010.0 |
| 20260508193657 | 26 | 133 | 3.2 | 3.2 | 0.00 | 0.00 | 0.00 | 91 | 1011.0 |
| 20260508193157 | 27 | 159 | 0.0 | 1.6 | 0.00 | 0.00 | 0.00 | 91 | 1011.0 |
| 20260508192658 | 27 | 148 | 4.8 | 4.8 | 0.00 | 0.00 | 0.00 | 91 | 1011.0 |
| 20260508192200 | 27 | 134 | 4.8 | 4.8 | 0.00 | 0.00 | 0.00 | 90 | 1011.0 |
| 20260508191657 | 27 | 122 | 4.8 | 4.8 | 0.00 | 0.00 | 0.00 | 90 | 1011.0 |
| 20260508191200 | 27 | 141 | 3.2 | 3.2 | 0.00 | 0.00 | 0.00 | 90 | 1011.0 |
| 20260508190657 | 27 | 128 | 3.2 | 3.2 | 0.00 | 0.00 | 0.00 | 89 | 1011.0 |
| 20260508190157 | 27 | 138 | 4.8 | 4.8 | 0.00 | 0.00 | 0.00 | 89 | 1011.0 |